Время (UTC), дата Ветер
(°,м/с) 
Видим.   Явления Облачность Т
(°С)
Тd
(°С)
f(%) Тe
(°С)
Pmin
(гПа)
dP
(гПа)
Po
(мм)
O2
(г/м3)
Тmin Tmax R s Состояние
почвы
00 01.07.13 080 (В) 20000 м    ясно 
+20.3 +11.8 58 +25  1003.4  -0.8  714  266           
03 01.07.13 120 (ЮВ) 20000 м    ясно 
+22.3 +14.2 60 +31  1002.7  -0.8  714  263  +17.1        сухая 
06 01.07.13 070 (В) 20000 м    1/0 средняя 
[Ac trans]
+27.7 +13.5 42 +35  1001.2  -0.5  714  258           
09 01.07.13 080 (В) 20000 м    8/4 600 м кучево-дожд., средняя 
[Cb calv|Ac trans]
+30 +12.3 34 +35  1000.3  -0.6  713  257           
12 01.07.13 100 (В) 20000 м    9/4 1000 м кучево-дожд., средняя 
[Cb calv|Ac trans]
+31.7 +12 30 +37  998.9  -1.1  713  255           
15 01.07.13 150 (ЮВ) 20000 м    10/6 1000 м кучево-дожд., средняя 
[Cb calv|Ac und]
+29.9 +12.1 33 +35  998.1  -1  712  256    +32.8       
18 01.07.13 290 (З) 11-17  20000 м  гроза, ливневой дождь  10/8 300 м кучево-дожд., средняя 
[Cb cap|Ac und]
+18.8 +17.1 90 +32  1004.4  4.3  715  266           
21 01.07.13 320 (СЗ) 3{17}  4000 м  ливневой дождь{гроза}  10/8 240 м кучево-дожд., средняя 
[Cb cap|Ac und]
+17.6 +16.9 96 +32  1006.6  4.3  716  267           
00 02.07.13 240 (ЮЗ) 20000 м  {гроза, ливн. осадки}  10/5 600 м кучево-дожд., средняя 
[Cb calv|Ac und]
+16.9 +16.2 96 +29  1005.4  -1.2  715  268           
03 02.07.13 270 (З) 20000 м    8/6 200 м кучево-дожд., средняя 
[Cb calv|Ac trans]
+17.5 +15.8 90 +30  1006.1  0.8  716  268  +16.8    19    влажная 
06 02.07.13 360 (С) 20000 м  в посл. час ливневой дождь  8/6 600 м кучево-дожд., средняя 
[Cb calv|Ac trans]
+20.5 +16.1 76 +33  1005.1  -0.5  716  265           
09 02.07.13 060 (СВ) 20000 м    9/6 600 м кучево-дожд., средняя 
[Cb calv|Ac trans]
+22.5 +17.9 75 +38  1005.6  0.8  716  262           
12 02.07.13 090 (В) 20000 м    9/6 660 м кучево-дожд., средняя 
[Cb calv|Ac trans]
+23.1 +17.2 69 +37  1005.3  0.1  716  262           
15 02.07.13 090 (В) 10 км  гроза, ливневой дождь  10/8 300 м кучево-дожд., средняя 
[Cb cap|Ac und]
+19.5 +18.3 93 +36  1006.8  0.8  717  265    +24     
18 02.07.13 060 (СВ) 10 км  гроза, ливневой дождь  10/8 240 м кучево-дожд., средняя 
[Cb cap|Ac und]
+16.2 +15.7 97 +28  1009.5  718  270           
21 02.07.13 100 (В) 10 км  в посл. час ливневой дождь{гроза}  10/8 180 м кучево-дожд., средняя 
[Cb cap|Ac und]
+17 +16.5 97 +30  1009.3  0.1  718  269           
00 03.07.13 090 (В) 10 км  {гроза, ливн. осадки}  10/8 240 м кучево-дожд., средняя 
[Cb calv|Ac und]
+17.2 +16.7 97 +31  1009.1  0.1  718  268           
03 03.07.13 080 (В) 4000 м  дымка{туман}  10/10 100 м 
[St]
+17.2 +16.8 98 +30  1009.9  0.7  719  269  +15.3    48     
06 03.07.13 090 (В) 10 км  {туман}  10/10 150 м 
[St]
+18.1 +16.7 92 +31  1010.5  0.7  719  268           
09 03.07.13 110 (В) 20000 м    10/10 720 м 
[Sc]
+19.9 +15.2 74 +30  1010.7  0.4  720  267           
12 03.07.13 110 (В) 20000 м    9/3 600 м средняя, верхняя 
[Sc|Ac As|Ci fib]
+22.7 +14.3 59 +31  1009.9  -0.3  719  265           
15 03.07.13 130 (ЮВ) 20000 м    6/1 600 м средняя, верхняя 
[Sc|Ac As|Ci fib]
+22.4 +13.5 57 +30  1010.6  0.6  720  265    +24.5       
18 03.07.13 110 (В) 20000 м    8/0 средняя 
[Ac trans]
+19.6 +13 66 +27  1011.9  0.8  720  268           
21 03.07.13 тихо ()   20000 м    8/3 1000 м 
[]
+19.7 +12.6 64 +25  1011.9  720  268           
00 04.07.13 040 (СВ) 20000 м    6/0 средняя 
[Ac trans]
+17.9 +12.4 70 +24  1012.4  0.1  720  270           
03 04.07.13 050 (СВ) 20000 м    6/0 средняя 
[Ac trans]
+18.5 +11.9 65 +24  1012.6  0.3  721  270  +17.2        влажная 
06 04.07.13 080 (В) 20000 м    ясно 
+23 +14.5 59 +32  1012.3  0.5  721  265           
09 04.07.13 090 (В) 5{10}  20000 м    8/3 600 м средняя, верхняя 
[Cu hum|Ac trans|Ci fib]
+26.6 +9.5 34 +28  1011.6  0.1  721  263           
12 04.07.13 070 (В) 3{10}  20000 м    8/5 600 м средняя, верхняя 
[Cu med, cong|Ac trans|Ci fib]
+26.8 +9.4 33 +28  1011.1  -0.5  721  263           
15 04.07.13 160 (Ю) 20000 м    8/3 1000 м средняя, верхняя 
[Cu hum|Ac trans|Ci]
+26.4 +11.9 40 +31  1011.2  0.1  721  263    +28       
18 04.07.13 210 (ЮЗ) 20000 м    8/0 средняя, верхняя 
[Ac trans|Ci fib]
+21.5 +11.7 54 +26  1013  0.9  721  267           
21 04.07.13 290 (З) 20000 м    ясно 
+20.3 +9 48 +21  1013  -0.2  721  269           
00 05.07.13 310 (СЗ) 20000 м    ясно 
+19.4 +12.7 65 +26  1012.7  -0.4  721  269           
03 05.07.13 тихо ()   20000 м    3/0 верхняя 
[Ci fib]
+20.2 +14.6 70 +29  1013.2  0.6  721  268  +18.7        сухая 
06 05.07.13 110 (В) 20000 м    3/0 средняя 
[Ac trans]
+24.9 +13.6 49 +32  1012.8  0.4  722  264           
09 05.07.13 080 (В) 20000 м    5/4 600 м средняя 
[Cu hum|Ac trans]
+27.6 +9.6 32 +29  1011.9  -0.4  721  262           
12 05.07.13 050 (СВ) 20000 м    8/4 1000 м средняя 
[Cu hum|Ac trans]
+28.8 +9.2 29 +30  1011.1  -0.6  721  261           
15 05.07.13 040 (СВ) 20000 м    8/3 1000 м средняя 
[Cu hum|Ac trans]
+26.8 +8.6 32 +27  1011.7  0.2  721  263    +29.2       
18 05.07.13 080 (В) 20000 м    6/0 средняя 
[Ac trans]
+22.5 +11.1 48 +26  1012.7  0.3  721  266           
21 05.07.13 320 (СЗ) 20000 м    3/0 средняя 
[Ac trans]
+21.3 +11.2 53 +25  1012.7  -0.2  721  267           
00 06.07.13 350 (С) 20000 м    1/0 средняя 
[Ac trans]
+19.3 +8.9 51 +21  1012.5  -0.6  721  270           
03 06.07.13 170 (Ю) 20000 м    1/0 средняя 
[Ac trans]
+20.5 +12.7 61 +26  1012.6  0.4  721  268  +16.5        сухая 
06 06.07.13 110 (В) 20000 м    1/0 верхняя 
[Ci fib]
+27.3 +10.3 35 +30  1011.6  0.1  721  262           
09 06.07.13 070 (В) 20000 м    3/3 600 м средняя, верхняя 
[Sc|Ac inh|Cs]
+29.4 +9.7 29 +29  1011.1  0.1  780  282           
12 06.07.13 150 (ЮВ) 20000 м  в посл. час ливневой дождь  9/5 600 м кучево-дожд., средняя 
[Cb calv|Ac trans]
+26.8 +12.8 42 +33  1011.4  0.1  721  262           
15 06.07.13 060 (СВ) 20000 м    10/5 1000 м кучево-дожд., средняя 
[Cb calv|Ac und]
+25.3 +11.5 42 +29  1011.8  -0.1  721  264    +29.6  0.3     
18 06.07.13 250 (З) 20000 м    10/5 1000 м кучево-дожд., средняя 
[Cb calv|Ac und]
+21 +13.2 61 +28  1013.9  1.3  722  267           
21 06.07.13 340 (С) 20000 м    9/3 1000 м кучево-дожд., средняя 
[Cb calv|Ac trans]
+21.3 +11.9 55 +26  1013.6  -0.3  722  267           
00 07.07.13 310 (СЗ) 20000 м    9/6 840 м кучево-дожд., средняя 
[Cb calv|Ac trans]
+20.5 +12.2 59 +26  1014.2  0.5  722  268           
03 07.07.13 350 (С) 20000 м    10/3 1000 м кучево-дожд., средняя 
[Cb calv|Ac und]
+21.2 +11.8 55 +26  1014.1  722  268  +19.1        сухая 
06 07.07.13 050 (СВ) 20000 м    4/0 средняя 
[Ac trans]
+25 +14.5 52 +34    0.7  723  264           
09 07.07.13 110 (В) 20000 м    3/3 600 м 
[Cu hum]
+28.4 +10.9 34 +32    0.1  723  262           
12 07.07.13 080 (В) 5{11}  20000 м    3/3 600 м 
[Cu hum]
+29.8 +8.4 26 +30    723  261           
15 07.07.13 090 (В) 20000 м    1/1 600 м 
[Cu hum]
+28.8 +9.4 30 +30  1013.2  -0.4  722  262    +30.1       
18 07.07.13 100 (В) 20000 м    1/0 средняя 
[Ac trans]
+23 +10.6 45 +26  1015.2  723  267           
21 07.07.13 130 (ЮВ) 20000 м    ясно 
+22.2 +9.6 45 +24  1015.6  0.3  723  268           
00 08.07.13 190 (Ю) 20000 м    3/0 средняя 
[Ac trans]
+17.8 +11.1 65 +22  1016.2  -0.2  723  271           
06 08.07.13 120 (ЮВ) 20000 м    ясно 
+27.7 +12.3 38 +33  1015.1  0.3  724  262           
09 08.07.13 100 (В) 20000 м    3/3 600 м 
[Cu med, cong]
+30.8 +9.2 26 +32  1014.2  -0.4  723  260           
12 08.07.13 100 (В) 20000 м    3/3 600 м 
[Cu med, cong]
+31.6 +8.2 23 +32  1012.9  -1.1  722  260           
15 08.07.13 190 (Ю) 20000 м    5/3 600 м верхняя 
[Cu med, cong|Ci fib]
+31.3 +11.4 29 +35  1012  -0.9  722  259    +32.4       
18 08.07.13 200 (Ю) 20000 м    4/4 600 м кучево-дожд. 
[Cb calv]
+25 +11.1 42 +28  1013.3  0.2  722  264           
21 08.07.13 260 (З) 20000 м    1/0 средняя 
[Ac trans]
+21.6 +11.4 52 +25  1013.5  -0.4  722  267           
00 09.07.13 280 (З) 20000 м    ясно 
+21.5 +10.7 50 +24  1012.7  -0.8  721  267           
03 09.07.13 300 (СЗ) 20000 м    3/0 средняя 
[Ac trans]
+23.1 +11.1 47 +27  1012.6  0.2  721  266  +20.8        сухая 
06 09.07.13 360 (С) 20000 м    3/0 средняя 
[Ac trans]
+28.5 +10.3 32 +31  1011.7  721  261           
09 09.07.13 260 (З) 20000 м    5/3 600 м средняя 
[Cu hum|Ac trans]
+30.3 +11.3 31 +34  1010.7  -0.7  721  259           
12 09.07.13 290 (З) 20000 м    5/5 600 м 
[Cu hum]
+31.4 +10.5 28 +34  1009  -1.4  720  258           
15 09.07.13 290 (З) 20000 м    5/3 1000 м средняя 
[Cu hum|Ac trans]
+30 +9.4 28 +31  1008.6  -0.6  719  259    +31.5       
18 09.07.13 290 (З) 20000 м    6/3 1000 м кучево-дожд., средняя 
[Cb calv|Ac trans]
+26.7 +10.7 37 +30  1009.8  0.6  720  262           
21 09.07.13 330 (СЗ) н/о    н/о 
+22.6 +12.5 53 +28  1010.3  -0.2  720  265           
00 10.07.13 320 (СЗ) 20000 м    ясно 
+20.5 +10.6 53 +23  1010.2  -0.5  719  268           
03 10.07.13 310 (СЗ) 20000 м    3/0 средняя 
[Ac trans]
+19.7 +12.2 62 +26  1010.3  719  268  +19.5        сухая 
06 10.07.13 040 (СВ) 20000 м    1/0 средняя 
[Ac trans]
+24.7 +10.2 40 +27  1009.2  -0.2  719  264           
09 10.07.13 300 (СЗ) 20000 м    5/0 верхняя 
[Ci fib]
+26.4 +10.9 38 +30  1008.3  -0.6  719  262           
12 10.07.13 290 (З) 20000 м    3/3 1000 м 
[Cu hum]
+27.2 +10.6 35 +30  1006.9  -1.2  718  261           
15 10.07.13 310 (СЗ) 20000 м    3/0 средняя 
[Ac trans]
+26.7 +8.5 32 +27  1006.7  -0.3  717  262    +27.8       
18 10.07.13 310 (СЗ) 20000 м    3/0 средняя 
[Ac trans]
+22.3 +9.3 43 +23  1007.9  0.5  718  266           
21 10.07.13 330 (СЗ) 20000 м    ясно 
+20.9 +9.5 48 +22  1007.9  -0.3  718  267           
00 11.07.13 030 (СВ) 20000 м    ясно 
+19.7 +9.8 53 +23  1008  -0.2  718  268           
03 11.07.13 060 (СВ) 20000 м    8/3 1000 м средняя 
[Sc|Ac trans]
+20 +10.6 55 +23  1007.9  718  267  +19.1        сухая 
06 11.07.13 060 (СВ) 20000 м    8/3 1000 м средняя, верхняя 
[Sc|Ac As|Ci fib]
+23.8 +10.4 43 +26  1007.5  0.2  718  264           
09 11.07.13 050 (СВ) 20000 м    4/3 600 м средняя 
[Cu hum|Ac trans]
+27.2 +9.8 34 +29  1006.6  -0.3  717  261           
12 11.07.13 150 (ЮВ) 20000 м    4/4 600 м 
[Cu hum]
+28.9 +9.4 30 +30  1005.5  -0.8  717  260           
15 11.07.13 310 (СЗ) 20000 м    8/3 600 м средняя, верхняя 
[Cu hum|Ac trans|Ci sp]
+27.3 +11.2 37 +31  1006.1  0.4  717  261    +29.1       
18 11.07.13 340 (С) 20000 м    9/4 1000 м кучево-дожд., верхняя 
[Cb calv|Ci fib]
+25 +11.4 43 +29  1006.9  0.4  717  263           
21 11.07.13 310 (СЗ) 20000 м    3/0 средняя 
[Ac trans]
+20.6 +14.4 68 +29  1008.2  0.6  718  266           
00 12.07.13 320 (СЗ) 20000 м    3/0 средняя 
[Ac trans]
+20.1 +13.8 67 +28  1008.8  0.4  718  267           
03 12.07.13 340 (С) 20000 м    3/1 1000 м кучево-дожд., средняя 
[Cb calv|Ac trans]
+20.9 +12 57 +26  1009.5  0.8  719  267  +19.9        сухая 
06 12.07.13 030 (СВ) 20000 м    3/0 средняя 
[Ac trans]
+26.3 +11.7 40 +31  1009  0.4  719  262           
09 12.07.13 360 (С) 20000 м    3/0 
[Cu hum]
+28.8 +7.2 26 +29  1008.7  0.1  719  261           
12 12.07.13 290 (З) 20000 м    4/4 1000 м 
[Cu hum]
+29.6 +7.4 25 +30  1008.5  -0.1  719  260           
15 12.07.13 320 (СЗ) 20000 м    3/3 1000 м 
[Cu hum]
+28.6 +8.4 28 +29  1008.9  0.2  719  261    +29.7       
18 12.07.13 320 (СЗ) 20000 м    ясно 
+24.7 +9.7 39 +26  1010.5  0.9  720  264           
21 12.07.13 310 (СЗ) 20000 м    ясно 
+23.4 +8.7 39 +24  1010.5  -0.2  720  266           
00 13.07.13 360 (С) 20000 м    3/0 средняя 
[Ac trans]
+22.6 +9.9 44 +24  1010.8  0.1  720  266           
03 13.07.13 200 (Ю) 20000 м    4/0 средняя 
[Ac trans]
+21.7 +13.2 58 +28  1011.2  0.3  720  266  +19.2        сухая 
06 13.07.13 180 (Ю) 20000 м    1/0 верхняя 
[Ci fib]
+27.5 +15 46 +37  1010.3  0.2  720  261           
09 13.07.13 340 (С) 20000 м    8/5 600 м средняя 
[Cu hum|Ac trans]
+29.2 +9.7 30 +31  1009.9  -0.2  720  260           
12 13.07.13 040 (СВ) 20000 м    8/4 600 м кучево-дожд., средняя 
[Cb calv|Ac trans]
+30.8 +10.3 28 +33  1008.8  -0.8  719  259           
15 13.07.13 030 (СВ) 20000 м  {гроза}  3/1 1000 м средняя 
[Cu hum|Ac trans]
+29.5 +9.1 28 +30  1008.8  -0.2  719  260    +30.9       
18 13.07.13 350 (С) 20000 м  {гроза}  4/3 1000 м средняя 
[Sc diur, vesp|Ac trans]
+25.4 +10 38 +27  1010  0.5  720  263           
21 13.07.13 340 (С) 20000 м    3/0 средняя 
[Ac trans]
+24 +9.7 40 +26  1009.9  -0.4  719  265           
00 14.07.13 040 (СВ) 20000 м    1/0 средняя 
[Ac trans]
+22.7 +8.8 41 +23  1009.9  -0.4  719  266           
03 14.07.13 130 (ЮВ) 20000 м    1/0 средняя 
[Ac trans]
+22.3 +10.7 48 +25  1009.8  0.1  719  266  +20        сухая 
06 14.07.13 170 (Ю) 20000 м    ясно 
+27.8 +14.2 43 +36  1008.9  719  260           
09 14.07.13 160 (Ю) 20000 м    5/0 600 м 
[Cu hum]
+32.1 +11.1 28 +36  1007.4  -0.8  719  257           
12 14.07.13 020 (С) 4{12}  20000 м  гроза, ливневой дождь  9/6 600 м кучево-дожд., средняя 
[Cb cap|Ac trans]
+26.8 +13.4 44 +34  1007.3  -0.9  718  261           
15 14.07.13 320 (СЗ) 20000 м  гроза, ливневой дождь  10/6 600 м кучево-дожд., средняя 
[Cb cap|Ac und]
+20.4 +15.5 73 +31  1009.8  1.3  719  266    +32.4  10     
18 14.07.13 340 (С) 20000 м  {гроза, ливн. осадки}  5/3 1000 м кучево-дожд., средняя 
[Cb calv|Ac trans]
+18.9 +15 78 +29  1011.3  1.2  720  268           
21 14.07.13 040 (СВ) 20000 м    6/0 средняя 
[Ac trans]
+20.1 +13.8 67 +28  1010.1  -0.9  719  267           
00 15.07.13 280 (З) 20000 м    8/0 средняя 
[Ac trans]
+18.6 +13.9 74 +28  1010.5  0.1  719  268           
03 15.07.13 240 (ЮЗ) 20000 м    8/0 средняя 
[Ac trans]
+17.5 +14.2 81 +26  1011.6  0.8  720  270  +16.3    0.3    влажная 
06 15.07.13 060 (СВ) 20000 м    1/0 средняя 
[Ac trans]
+24.9 +13.8 50 +33  1010.5  0.3  720  263           
09 15.07.13 210 (ЮЗ) 20000 м    3/3 600 м 
[Cu hum]
+27.4 +13.6 43 +35  1010.1  720  261           
12 15.07.13 330 (СЗ) 20000 м    3/3 600 м 
[Cu hum]
+29.6 +13.3 37 +36  1008.8  -0.8  719  259           
15 15.07.13 320 (СЗ) 20000 м    3/3 600 м кучево-дожд. 
[Cb calv]
+28.9 +12.9 37 +35  1008.5  -0.5  719  260    +30       
18 15.07.13 260 (З) 5{11}  20000 м  гроза, ливневой дождь  10/4 600 м кучево-дожд., средняя 
[Cb cap|Ac und]
+21.1 +15.4 70 +32  1011.1  1.2  720  266           
21 15.07.13 320 (СЗ) 20000 м  {гроза, ливн. осадки}  4/1 1000 м кучево-дожд., средняя 
[Cb calv|Ac trans]
+22.8 +13.6 56 +30  1009.7  -1.1  719  265           
00 16.07.13 280 (З) 20000 м  {гроза, ливн. осадки}  3/0 средняя 
[Ac trans]
+19.1 +13.9 72 +28  1010  -1.1  719  268           
03 16.07.13 300 (СЗ) 20000 м    8/3 1000 м средняя, верхняя 
[Sc|Ac cast|Ci]
+21.7 +14.8 65 +31  1009.7  0.2  719  265  +19      влажная 
06 16.07.13 310 (СЗ) 20000 м    10/5 600 м средняя, верхняя 
[Sc|Ac trans|Ci fib]
+22.7 +16.4 68 +35  1010.1  0.5  719  264           
09 16.07.13 020 (С) 20000 м    10/4 1000 м кучево-дожд., средняя, верхняя 
[Cb calv|Ac trans|Ci fib]
+25.9 +15.9 54 +37  1009.5  719  261           
12 16.07.13 040 (СВ) 20000 м    10/4 600 м кучево-дожд., средняя, верхняя 
[Cb calv|Ac As|Ci fib]
+25.9 +15.2 52 +36  1009.1  -0.4  719  261           
15 16.07.13 300 (СЗ) 10 км  гроза, ливневой дождь  10/8 240 м кучево-дожд., средняя 
[Cb cap|Ac und]
+20.5 +18.9 91 +38  1011.2  1.1  720  265    +26.7     
18 16.07.13 200 (Ю) 20000 м  {гроза, ливн. осадки}  6/3 1000 м кучево-дожд., средняя 
[Cb calv|Ac trans]
+18.6 +15.9 84 +31  1011.6  720  268           
21 16.07.13 200 (Ю) 20000 м    ясно 
+19.1 +16.7 86 +33  1011.5  720  267           
00 17.07.13 250 (З) 20000 м    ясно 
+17.6 +15.6 88 +29  1011.5  -0.3  720  269           
03 17.07.13 220 (ЮЗ) 20000 м    ясно 
+18.8 +16.8 88 +32  1011.7  0.4  720  268  +17.5        влажная 
06 17.07.13 330 (СЗ) 20000 м    ясно 
+24.3 +14.7 55 +34  1011.3  0.5  721  264           
09 17.07.13 320 (СЗ) 20000 м    8/4 600 м средняя 
[Cu hum|Ac trans]
+26.3 +13.4 45 +33  1011  0.5  721  262           
12 17.07.13 300 (СЗ) 20000 м    8/4 1000 м средняя 
[Cu hum|Ac trans]
+27.8 +13.1 40 +34  1010  -0.7  720  261           
15 17.07.13 330 (СЗ) 20000 м    8/0 средняя, верхняя 
[Ac trans|Ci fib]
+27 +11.6 38 +31  1009.8  -0.3  720  262           
18 17.07.13 280 (З) 20000 м    6/0 средняя 
[Ac trans]
+22.7 +12.7 53 +29  1011.6  -0.3  721  266           
21 17.07.13 350 (С) 20000 м    3/0 средняя, верхняя 
[Ac trans|Ci fib]
+22.6 +11.5 49 +27  1011.6  0.1  721  266           
00 18.07.13 240 (ЮЗ) 20000 м    8/3 1000 м средняя 
[Sc|Ac trans]
+20.1 +14.4 70 +29  1011.5  -0.5  720  267           
03 18.07.13 230 (ЮЗ) 20000 м    9/4 1000 м средняя 
[Sc|Ac trans]
+20 +13.9 68 +28  1012  0.4  720  268  +19.3        сухая 
06 18.07.13 190 (Ю) 20000 м    6/0 средняя 
[Ac trans]
+24.1 +13.6 52 +31  1011.3  0.1  721  264           
09 18.07.13 130 (ЮВ) 20000 м    8/3 1000 м средняя 
[Cu hum|Ac trans]
+27.2 +12.9 41 +33  1010.5  -0.3  720  261           
12 18.07.13 050 (СВ) 20000 м    8/4 1000 м кучево-дожд., средняя 
[Cb calv|Ac trans]
+27.7 +11.8 37 +32  1009.5  -0.9  720  261           
15 18.07.13 170 (Ю) 20000 м    10/3 1000 м кучево-дожд., средняя 
[Cb calv|Ac trans]
+23.9 +14.2 55 +32  1010.5  0.4  720  264    +28.6       
18 18.07.13 210 (ЮЗ) 20000 м    10/4 600 м кучево-дожд., средняя 
[Cb calv|Ac trans]
+21.3 +14.9 67 +31  1012  721  266           
21 18.07.13 250 (З) 20000 м    10/3 600 м кучево-дожд., средняя 
[Cb calv|Ac trans]
+20.3 +14.9 71 +30  1011.9  -0.3  720  267           
00 19.07.13 300 (СЗ) 20000 м    10/0 средняя 
[Ac und]
+19.5 +14.4 72 +29  1010.8  -1.2  720  268           
03 19.07.13 220 (ЮЗ) 20000 м  в посл. час ливневой дождь  10/3 600 м кучево-дожд., средняя 
[Cb calv|Ac und]
+18 +15.9 88 +30  1011.1  0.1  720  269  +17.9    0.0    сухая 
06 19.07.13 010 (С) 10 км  слаб. ливневой дождь  10/4 600 м кучево-дожд., средняя 
[Cb cap|Ac und]
+17.9 +15.5 86 +30  1012.1  0.9  720  269  +17.4         
09 19.07.13 080 (В) 10 км  слаб. ливневой дождь  10/6 240 м кучево-дожд., средняя 
[Cb cap|Ac und]
+18.3 +17.1 93 +33  1012.4  0.4  721  268           
12 19.07.13 120 (ЮВ) 20000 м  в посл. час ливневой дождь  8/5 360 м средняя 
[Sc|Ac trans]
+20.4 +16.6 79 +33  1012.2  0.2  721  267           
15 19.07.13 100 (В) 20000 м    5/5 600 м средняя 
[Sc|Ac trans]
+21.1 +14.9 68 +31  1012.3  0.2  721  266    +21.3     
18 19.07.13 140 (ЮВ) 20000 м    3/1 1000 м средняя 
[Sc diur, vesp|Ac trans]
+16.3 +14.7 90 +26  1013.5  0.2  721  271           
21 19.07.13 220 (ЮЗ) 20000 м    1/0 средняя 
[Ac trans]
+14.9 +13.7 92 +22  1013.3  -0.4  721  273           
00 20.07.13 200 (Ю) 20000 м    1/0 верхняя 
[Ci fib]
+14.8 +13.3 91 +23  1013.2  0.1  721  273           
03 20.07.13 120 (ЮВ) 20000 м    ясно 
+17.6 +13.9 79 +26  1012.8  0.1  721  270  +14.1        влажная 
06 20.07.13 120 (ЮВ) 20000 м    ясно 
+22.2 +14.2 61 +31  1012.1  0.1  721  266           
09 20.07.13 110 (В) 20000 м    3/3 600 м 
[Cu hum]
+25.6 +10.6 39 +28  1011.1  -0.5  721  263           
12 20.07.13 160 (Ю) 20000 м    3/3 600 м 
[Cu hum]
+27.9 +8.9 30 +28  1009.5  -1.1  720  262           
15 20.07.13 120 (ЮВ) 20000 м    1/1 1000 м 
[Cu hum]
+26.5 +9.1 33 +27  1009.2  -0.5  719  263    +28       
18 20.07.13 130 (ЮВ) 20000 м    ясно 
+20 +11.8 59 +25  1011  0.7  720  268           
21 20.07.13 170 (Ю) 20000 м    ясно 
+17.9 +12.6 71 +24  1010.8  -0.6  719  269           
00 21.07.13 200 (Ю) 20000 м    3/0 верхняя 
[Ci fib]
+17.6 +13.3 76 +25  1009.5  -1.3  718  269           
03 21.07.13 200 (Ю) 20000 м    1/0 верхняя 
[Ci fib]
+19.6 +14 70 +28  1008.5  -0.5  718  267  +17.1        сухая 
06 21.07.13 180 (Ю) 20000 м    ясно 
+26.8 +13.7 44 +34  1006.9  -0.4  718  261           
09 21.07.13 260 (З) 20000 м    6/6 600 м 
[Cu hum]
+28.4 +12.5 37 +34  1006  -0.6  717  259           
12 21.07.13 250 (З) 20000 м    8/8 600 м 
[Cu hum]
+28.1 +10.9 34 +31  1005.1  -0.9  717  260           
15 21.07.13 300 (СЗ) 20000 м    8/4 1000 м кучево-дожд., средняя 
[Cb calv|Ac trans]
+26.9 +10.2 35 +29  1004.8  -0.5  716  261    +30.1       
18 21.07.13 270 (З) 5{18}  10 км  гроза, ливневой дождь  10/8 600 м кучево-дожд., средняя 
[Cb cap|Ac und]
+17.8 +17.1 96 +32  1009  2.6  718  268           
21 21.07.13 320 (СЗ) 20000 м  {гроза, ливн. осадки}  10/6 600 м кучево-дожд., средняя 
[Cb calv|Ac und]
+17.5 +15.8 90 +29  1009.4  0.3  718  269           
00 22.07.13 270 (З) 20000 м  {гроза, ливн. осадки}  6/3 1000 м кучево-дожд., средняя 
[Cb calv|Ac trans]
+16.1 +13.2 83 +23  1009.5  0.3  718  271           
03 22.07.13 270 (З) 20000 м    3/0 средняя 
[Ac trans]
+15.4 +11.6 78 +19  1010.1  0.4  719  272  +14.4    22    влажная 
06 22.07.13 310 (СЗ) 20000 м    3/0 средняя 
[Ac trans]
+19.7 +10.3 55 +23  1009.6  0.2  719  268           
09 22.07.13 260 (З) 20000 м    6/5 600 м средняя 
[Cu hum|Ac trans]
+21.9 +10.3 48 +24  1009.2  719  266           
12 22.07.13 270 (З) 6{12}  20000 м    5/5 1000 м 
[Cu hum]
+23.3 +7.1 35 +23  1008.6  -0.3  718  266           
15 22.07.13 280 (З) 20000 м    3/0 средняя 
[Ac trans]
+22.9 +6 33 +23  1008.6  0.1  718  266    +23.6       
18 22.07.13 280 (З) 20000 м    3/0 средняя 
[Ac trans]
+17.6 +7.7 52 +18  1010.5  0.9  719  271           
21 22.07.13 270 (З) 20000 м    3/0 средняя 
[Ac trans]
+15.7 +7.7 59 +16  1010.6  -0.2  719  273           
00 23.07.13 300 (СЗ) 20000 м    6/0 средняя 
[Ac trans]
+17.5 +7.9 53 +18  1009.7  -0.6  718  271           
03 23.07.13 250 (З) 20000 м    8/3 1000 м кучево-дожд., средняя 
[Cb calv|Ac trans]
+16.9 +10.2 65 +20  1010.1  0.4  719  271  +14        сухая 
06 23.07.13 260 (З) 20000 м    5/3 1000 м кучево-дожд., средняя 
[Cb calv|Ac trans]
+21.5 +8.9 44 +22  1009.6  0.2  719  267           
09 23.07.13 180 (Ю) 20000 м    6/3 600 м средняя 
[Cu hum|Ac trans]
+24.6 +11.1 43 +28  1008.9  0.2  719  264           
12 23.07.13 270 (З) 20000 м    6/4 1000 м средняя 
[Cu hum|Ac trans]
+25.8 +9.6 36 +27  1008.2  -0.5  718  263           
15 23.07.13 230 (ЮЗ) 20000 м    8/1 1000 м средняя 
[Cu hum|Ac trans]
+23.6 +10 42 +26  1008.7  0.1  719  265    +26.2       
18 23.07.13 250 (З) 20000 м    8/4 1000 м средняя 
[Sc|Ac trans]
+19.8 +11.6 59 +25  1010.4  719  268           
21 23.07.13 280 (З) 20000 м    9/4 1000 м средняя 
[Sc|Ac trans]
+19.8 +10.6 55 +23  1011.1  0.6  720  268           
00 24.07.13 270 (З) 20000 м    5/3 1000 м средняя 
[Sc|Ac trans]
+17.6 +12.9 74 +24  1011.9  0.4  720  270           
03 24.07.13 260 (З) 20000 м    3/3 1000 м 
[Sc diur, vesp]
+17.3 +14 81 +26  1012  0.1  720  270  +16.3        сухая 
06 24.07.13 260 (З) 20000 м    3/3 600 м 
[Cu med, cong]
+22.2 +12.9 56 +28  1011.1  0.1  720  266           
09 24.07.13 250 (З) 7-11{12}  20000 м    3/3 600 м 
[Cu med, cong]
+25 +10.5 40 +28  1010  -0.6  720  264           
12 24.07.13 270 (З) 7-10{13}  20000 м    3/3 600 м 
[Cu hum]
+26.8 +6.2 27 +27  1009.1  -0.6  719  263           
15 24.07.13 300 (СЗ) 6{11}  20000 м    1/1 600 м 
[Cu hum]
+24.6 +11.5 44 +29  1009.4  719  264    +27.2       
18 24.07.13 260 (З) 5{10}  20000 м    1/0 средняя 
[Ac trans]
+19.1 +11.9 63 +24  1011.9  1.5  720  269           
21 24.07.13 250 (З) 20000 м    1/0 средняя 
[Ac trans]
+17.4 +12.8 74 +24  1012.3  0.1  720  270           
00 25.07.13 250 (З) 20000 м    ясно 
+17.3 +13.8 80 +25  1012  -0.3  720  270           
03 25.07.13 260 (З) 20000 м    8/3 600 м кучево-дожд., средняя 
[Cb calv|Ac As]
+18.4 +13.2 72 +26  1012  0.1  720  269  +16.5        сухая 
06 25.07.13 270 (З) 5{10}  20000 м    8/4 600 м кучево-дожд., средняя 
[Cb calv|Ac trans]
+21.1 +12.9 59 +27  1011.1  -0.4  720  267           
09 25.07.13 270 (З) 5{10}  20000 м    8/5 1000 м кучево-дожд., средняя 
[Cb calv|Ac trans]
+24.1 +13.9 53 +32  1009.6  -0.9  719  263           
12 25.07.13 310 (СЗ) 20000 м    8/5 1000 м кучево-дожд., средняя 
[Cb calv|Ac trans]
+24.1 +13.4 51 +31  1008.7  -0.9  719  263           
15 25.07.13 260 (З) 20000 м    8/3 1000 м средняя 
[Cu hum|Ac trans]
+24 +12.1 47 +29  1008.3  -0.4  718  264    +27       
18 25.07.13 270 (З) 20000 м    3/0 средняя 
[Ac trans]
+21 +13.4 62 +28  1009.3  0.4  719  266           
21 25.07.13 260 (З) 20000 м    3/0 средняя 
[Ac trans]
+18.7 +14.1 75 +27  1009.1  -0.5  718  268           
00 26.07.13 260 (З) 20000 м    1/0 средняя 
[Ac trans]
+17.5 +14.6 83 +27  1008.7  -0.6  718  269           
03 26.07.13 240 (ЮЗ) 20000 м    4/1 600 м кучево-дожд., средняя 
[Cb calv|Ac trans]
+17.9 +14.1 78 +26  1008.1  -0.5  717  268  +16.4        сухая 
06 26.07.13 250 (З) 9-12{12}  20000 м    3/1 600 м средняя 
[Cu hum|Ac trans]
+22.1 +13.8 59 +30  1006.3  -0.5  717  264           
09 26.07.13 270 (З) 9-15{17}  20000 м  в посл. час ливневой дождь  8/3 1000 м кучево-дожд., средняя 
[Cb calv|Ac trans]
+23.5 +13 52 +30  1005.5  -0.5  716  263           
12 26.07.13 290 (З) 7-12{18}  20000 м  в посл. час ливневой дождь  8/5 1000 м кучево-дожд., средняя 
[Cb calv|Ac trans]
+23.3 +14.2 57 +32  1005.5  716  263           
15 26.07.13 270 (З) 7-10{14}  20000 м  {ливн. осадки}  4/3 1000 м кучево-дожд., средняя 
[Cb calv|Ac trans]
+22.3 +11.9 52 +27  1006.4  0.6  717  265    +24.9       
18 26.07.13 270 (З) 6{12}  20000 м  {ливн. осадки}  3/1 1000 м кучево-дожд., средняя 
[Cb calv|Ac trans]
+19.5 +12.9 66 +26  1008.2  1.2  718  267           
21 26.07.13 260 (З) 6{12}  20000 м    3/0 средняя 
[Ac trans]
+17.3 +13.7 79 +25  1008.7  0.1  718  269           
00 27.07.13 260 (З) н/о    н/о 
+15.6 +13.2 86 +22  1008.7  -0.3  718  271           
03 27.07.13 240 (ЮЗ) 20000 м    3/0 верхняя 
[Ci fib]
+16.8 +12.7 77 +23  1008.2  -0.2  717  270  +15.2        сухая 
06 27.07.13 260 (З) 7{10}  20000 м    1/0 средняя 
[Ac trans]
+22 +12.9 56 +28  1007.3  717  265           
09 27.07.13 290 (З) 4{10}  20000 м    4/4 600 м 
[Cu med, cong]
+25.8 +11 39 +29  1006.3  -0.4  717  262           
12 27.07.13 350 (С) 20000 м    4/4 600 м 
[Cu med, cong]
+25.6 +12.2 43 +31  1005.7  717  262           
15 27.07.13 300 (СЗ) 20000 м  гроза без осадков  6/3 1000 м кучево-дожд., средняя 
[Cb calv|Ac trans]
+22.2 +13.7 59 +30  1006.8  0.5  717  264    +27.6       
18 27.07.13 280 (З) 20000 м  зарница{гроза}  8/4 1000 м кучево-дожд., средняя 
[Cb calv|Ac trans]
+20.5 +13.7 65 +28  1008.3  1.2  718  266           
21 27.07.13 270 (З) 20000 м    8/4 1000 м кучево-дожд., средняя 
[Cb cap|Ac und]
+18.7 +14.3 76 +28  1008.8  0.1  718  268           
00 28.07.13 280 (З) 20000 м    8/1 1000 м кучево-дожд., средняя, верхняя 
[Cb cap|Ac As|Ci]
+17.8 +13.2 74 +25  1008.8  -0.2  718  269           
03 28.07.13 260 (З) 20000 м    9/3 1000 м кучево-дожд., средняя 
[Cb calv|Ac trans]
+16.5 +14.1 86 +25  1009.5  0.4  718  270  +16.1        сухая 
06 28.07.13 310 (СЗ) 20000 м    9/3 1000 м кучево-дожд., верхняя 
[Cb calv|Ci]
+22.5 +12.5 53 +28  1008.9  0.5  719  265           
09 28.07.13 250 (З) 20000 м  гроза без осадков  8/4 600 м кучево-дожд., верхняя 
[Cb calv|Ci fib]
+24.6 +12.8 48 +31  1008.7  0.1  719  263           
12 28.07.13 280 (З) 3{10}  20000 м  гроза, ливневой дождь  9/5 600 м кучево-дожд., средняя 
[Cb cap|Ac trans]
+21.5 +14.1 63 +30  1009.3  -0.1  719  266           
15 28.07.13 340 (С) 10 км  гроза, ливневой дождь  10/6 300 м кучево-дожд., средняя 
[Cb cap|Ac und]
+16.3 +15.3 94 +28  1011.7  1.4  720  270    +26     
18 28.07.13 210 (ЮЗ) 20000 м  {гроза, ливн. осадки}  9/3 1000 м кучево-дожд., средняя 
[Cb calv|Ac trans]
+16.5 +14.5 88 +26  1013.1  1.3  721  271           
21 28.07.13 230 (ЮЗ) 20000 м    10/0 средняя 
[Ac und]
+16.5 +13.8 84 +24  1013.3  0.2  721  271           
00 29.07.13 250 (З) 20000 м    6/0 верхняя 
[Ci fib]
+15.6 +12.6 82 +22  1013.6  0.1  721  272           
03 29.07.13 230 (ЮЗ) 20000 м    8/3 1000 м верхняя 
[Sc|Ci fib]
+15.4 +12.1 81 +20  1013.8  0.1  721  273  +14.8      влажная 
06 29.07.13 260 (З) 20000 м    9/4 1000 м кучево-дожд., средняя 
[Cb calv|Ac trans]
+18.6 +13.1 70 +25  1013.3  0.1  721  269           
09 29.07.13 230 (ЮЗ) 3{12}  20000 м  гроза, ливневой дождь  10/5 1000 м кучево-дожд., средняя 
[Cb cap|Ac und]
+15.9 +13.4 85 +23  1013.7  0.1  721  272           
12 29.07.13 270 (З) 20000 м  {гроза, ливн. осадки}  5/3 1000 м кучево-дожд., средняя 
[Cb calv|Ac und]
+23.5 +9.8 42 +25  1010.7  -1.6  720  265           
15 29.07.13 320 (СЗ) 20000 м    8/3 1000 м кучево-дожд., средняя, верхняя 
[Cb calv|Ac trans|Ci fib]
+21.3 +9.4 47 +22  1010.8  -0.3  720  267    +24     
18 29.07.13 240 (ЮЗ) 20000 м    8/3 1000 м средняя 
[Sc diur, vesp|Ac trans]
+15.6 +10.5 72 +19  1013  1.1  721  273           
21 29.07.13 240 (ЮЗ) 20000 м    3/0 средняя 
[Ac trans]
+16.1 +11.3 73 +20  1012.2  -0.7  720  272           
00 30.07.13 250 (З) 20000 м    5/0 средняя 
[Ac trans]
+16.6 +10.7 68 +19  1011.1  -1  719  271           
03 30.07.13 240 (ЮЗ) 20000 м    8/3 1000 м средняя 
[Sc|Ac trans]
+16.1 +12.5 79 +22  1010.6  -0.5  719  271  +14.9        влажная 
06 30.07.13 270 (З) 20000 м    8/5 600 м кучево-дожд., средняя 
[Cb calv|Ac trans]
+20.8 +13.1 61 +27  1008.4  -1.2  718  266           
09 30.07.13 240 (ЮЗ) 9-12{12}  20000 м  в посл. час гроза{ливн. осадки}  8/3 600 м средняя, верхняя 
[Cu med, cong|Ac trans|Ci]
+22.5 +11.7 50 +27  1007.2  -0.9  717  265           
12 30.07.13 260 (З) 7-11{13}  20000 м  {гроза, ливн. осадки}  9/1 600 м средняя, верхняя 
[Cu med, cong|Ac As|Ci sp]
+22 +11.6 52 +26  1007.1  -0.2  717  265           
15 30.07.13 250 (З) 6-10  20000 м    9/0 средняя, верхняя 
[Ac trans|Ci fib]
+20.7 +12.5 59 +26  1007.5  0.2  717  266    +23.1  0.0     
18 30.07.13 250 (З) 7{10}  20000 м    8/3 1000 м средняя 
[Sc diur, vesp|Ac trans]
+18.6 +11.9 65 +24  1008.2  0.2  718  268           
21 30.07.13 260 (З) 8-11{12}  20000 м    3/0 средняя 
[Ac trans]
+17.1 +12 72 +22  1007.7  -0.7  717  270           
00 31.07.13 270 (З) 8-12{13}  20000 м    1/0 средняя 
[Ac trans]
+16.6 +11.3 71 +20  1007.7  717  270           
03 31.07.13 200 (Ю) 20000 м    3/3 600 м кучево-дожд., средняя 
[Cb calv|Ac trans]
+15.4 +11.7 79 +19  1007.9  0.1  717  271  +15.3        сухая 
06 31.07.13 270 (З) 5{12}  20000 м    9/3 600 м кучево-дожд., средняя 
[Cb calv|Ac trans]
+18.2 +12 67 +23  1007.1  -0.3  717  268           
09 31.07.13 260 (З) 9-13{13}  20000 м  в посл. час ливневой дождь  8/3 1000 м кучево-дожд., средняя 
[Cb calv|Ac trans]
+23.8 +11.3 45 +28  1004.8  -1.2  716  263           
12 31.07.13 320 (СЗ) 4{14}  20000 м  гроза без осадков{ливн. осадки}  8/5 1000 м кучево-дожд., средняя 
[Cb calv|Ac trans]
+21.7 +14.3 63 +30  1005.6  0.5  716  264           
15 31.07.13 260 (З) 20000 м  {гроза}  4/3 1000 м кучево-дожд., средняя 
[Cb calv|Ac trans]
+22.8 +12.1 51 +28  1005.4  716  264    +24.3  0.0     
18 31.07.13 260 (З) 7-10{13}  20000 м  {гроза}  3/1 1000 м кучево-дожд., средняя 
[Cb cap|Ac lent]
+18.8 +13.5 71 +26  1007.5  717  268           
21 31.07.13 260 (З) 8-12{13}  20000 м    3/0 средняя 
[Ac trans]
+18.7 +13.1 70 +26  1007.4  717  268           
00 01.08.13 260 (З) 7-10{12}  20000 м    3/3 600 м 
[Sc]
+17.4 +13.3 77 +24  1008.1  0.4  717  269           
03 01.08.13 250 (З) 20000 м    4/3 600 м верхняя 
[Sc diur, vesp|Ci fib]
+17.4 +13.5 78 +24  1008.8  0.7  718  269  +16.8        сухая 
06 01.08.13 250 (З) 8-10{12}  20000 м    4/3 600 м средняя 
[Cu med, cong|Ac trans]
+22.1 +14.4 62 +31  1008.4  0.4  718  265           
Время (UTC), дата Ветер
(°,м/с) 
Видим.   Явления Облачность Т
(°С)
Тd
(°С)
f(%) Тe
(°С)
Pmin
(гПа)
dP
(гПа)
Po
(мм)
O2
(г/м3)
Тmin Tmax R s Состояние
почвы